Wind_Speed
35 34 33 32 31 30 31 30 29 27 24 23 21 19 17 16 15 14 13 12 12 11 11 11 11 11 11 11 11 11 11 10 9 8 8 8 7 7 6 5 4 3 2
33 33 33 33 32 31 31 30 29 28 27 26 24 22 20 18 17 16 15 14 13 13 12 12 12 12 12 12 11 11 11 11 10 9 9 8 7 7 6 5 4 3 2
33 33 34 33 33 33 32 30 29 28 28 27 26 24 21 21 19 18 17 16 15 15 14 14 13 13 13 13 12 12 11 11 11 10 10 9 8 7 6 5 4 4 3
31 32 33 34 34 33 33 33 32 29 28 28 26 26 23 22 22 20 20 19 18 17 16 16 15 14 14 14 13 12 12 12 11 11 10 9 9 8 7 6 5 5 4
27 29 30 32 34 35 33 34 33 31 30 30 28 27 25 25 24 22 22 21 20 19 19 18 18 17 16 15 15 14 13 12 12 11 10 10 10 9 8 7 6 6 6
24 26 28 30 32 34 34 34 34 33 31 31 30 29 28 26 26 25 24 24 23 22 21 21 20 19 18 17 17 16 15 14 13 12 12 11 11 10 9 8 8 7 7
21 23 25 28 29 31 33 34 35 35 33 32 32 32 31 29 28 28 27 26 26 25 24 23 22 21 20 19 19 18 17 16 15 14 13 13 12 12 11 10 9 9 9
19 20 22 24 27 29 31 32 34 35 35 35 33 33 33 31 31 30 29 29 28 28 27 26 24 23 22 22 21 21 20 19 17 16 15 15 14 13 12 11 11 11 10
17 18 20 22 24 26 29 31 32 35 36 35 35 35 34 33 34 32 33 32 32 30 29 29 27 26 25 24 23 23 22 21 20 19 17 17 16 15 14 14 13 13 13
15 17 18 19 21 24 26 29 31 33 35 36 36 36 36 34 35 34 34 35 35 34 32 31 30 29 28 27 26 25 24 23 22 21 20 19 18 17 16 16 15 15 15
14 15 16 18 20 22 24 27 29 32 34 36 36 37 37 36 36 36 35 36 36 36 35 33 32 33 31 29 28 28 27 26 25 24 23 21 20 19 19 18 17 17 17
14 14 15 16 18 20 22 25 28 31 32 34 35 36 36 36 37 37 36 35 36 37 37 36 34 35 34 32 31 30 29 28 27 26 25 24 22 22 21 20 19 19 19
15 15 15 16 17 19 20 23 25 28 31 32 34 36 37 38 38 38 38 38 37 37 37 36 35 35 36 35 33 33 32 30 29 28 27 26 25 23 23 22 21 21 21
16 15 15 16 17 18 20 21 23 25 28 30 32 34 36 37 38 38 38 38 38 38 38 36 36 36 36 37 37 36 34 33 32 31 30 28 27 26 25 24 23 23 23
18 17 16 16 17 18 19 21 22 24 27 29 31 33 35 36 38 38 38 38 38 38 38 36 37 37 37 38 38 38 37 35 34 34 32 31 30 28 27 26 25 25 25
20 19 18 17 17 17 17 18 20 22 25 27 29 31 33 35 37 38 38 39 39 38 38 38 37 37 38 39 39 40 39 37 36 35 34 33 32 31 30 29 28 27 26
22 21 19 17 16 16 16 16 18 20 22 25 27 29 31 33 36 38 39 39 40 40 39 39 40 39 38 38 39 40 40 39 37 36 35 34 34 33 32 31 30 29 28
24 22 20 19 17 15 14 14 16 17 19 21 24 27 29 32 35 36 38 39 39 40 41 40 41 40 39 39 39 38 39 38 37 37 37 36 35 35 33 33 32 31 30
26 24 22 20 18 17 15 14 14 15 16 18 21 24 27 29 32 35 36 38 39 40 40 40 41 41 41 40 40 40 39 38 38 38 38 37 36 36 35 34 33 32 31
26 25 23 22 20 18 16 14 14 14 14 16 18 21 23 27 29 32 33 35 38 39 39 40 41 41 41 42 41 41 40 39 38 38 39 38 37 36 36 35 34 33 33
27 26 24 23 21 19 17 16 14 13 12 13 16 18 21 24 26 28 31 33 35 37 38 39 40 41 41 42 42 41 40 40 40 38 37 38 37 37 36 36 36 35 34
27 26 25 24 23 21 19 17 15 13 11 11 13 16 18 21 24 26 28 31 33 34 36 38 39 40 40 40 41 41 41 41 40 38 37 38 38 38 38 38 37 36 35
27 26 26 25 24 23 20 18 15 13 11 11 12 14 16 18 21 24 26 29 30 32 34 36 37 38 39 41 40 40 41 42 42 41 40 39 39 39 39 38 38 37 37
27 26 26 25 25 24 23 20 16 14 12 11 11 12 14 16 18 20 22 25 28 30 32 34 34 35 37 39 40 40 41 41 42 42 42 41 40 40 39 38 38 38 37
27 27 26 25 25 24 23 21 18 15 13 11 10 10 11 12 14 17 19 22 25 27 30 32 33 34 35 36 37 38 39 40 40 41 42 41 40 39 39 39 38 38 37
26 27 27 26 25 24 23 21 19 16 14 12 10 9 10 10 12 14 17 19 22 24 26 29 31 32 34 35 35 36 37 38 38 39 39 39 39 39 39 39 38 37 36
Wind_Direction
262 262 259 260 256 251 246 243 238 234 233 231 230 229 230 231 226 222 222 217 214 210 205 198 195 193 190 190 188 187 185 181 178 178 174 173 177 175 175 177 180 181 188
262 261 258 257 257 254 253 249 242 237 234 233 230 228 228 230 228 223 222 217 213 209 204 200 200 198 195 192 192 191 189 189 188 186 184 184 185 186 188 190 190 196 213
261 260 258 256 256 255 256 254 247 241 237 234 232 230 230 229 229 226 223 219 214 211 207 206 205 203 199 196 195 194 193 194 193 193 193 196 197 195 196 200 205 217 237
263 260 258 256 256 254 254 254 252 245 241 237 235 233 232 230 228 226 223 221 217 214 211 210 209 206 205 204 201 199 199 198 199 200 201 202 202 205 209 217 224 238 253
264 261 258 256 255 254 253 251 251 249 244 241 239 235 233 230 228 226 224 223 220 218 217 216 215 213 212 211 208 205 205 204 204 203 205 208 211 213 219 225 235 248 260
267 262 259 256 254 253 252 249 247 247 245 243 242 239 233 230 229 227 226 225 223 220 221 220 219 218 217 216 214 212 212 211 209 208 211 213 215 218 225 233 242 253 263
272 267 261 257 254 251 250 248 246 245 245 244 242 241 238 235 231 228 227 227 226 223 222 222 223 223 221 221 220 218 217 216 216 219 219 218 220 224 231 239 247 255 263
276 270 265 259 255 251 249 247 246 245 244 244 242 241 240 237 233 231 228 227 227 226 224 222 224 225 225 224 223 222 222 221 222 224 223 223 225 230 235 241 249 256 266
283 276 269 262 256 253 250 247 245 245 243 243 242 241 241 240 237 234 232 230 229 228 226 225 225 226 227 228 227 226 225 226 226 227 228 228 230 234 239 246 253 261 268
292 283 274 267 261 256 252 248 246 245 244 244 243 242 241 240 238 236 234 233 232 230 228 229 227 227 228 229 229 228 228 229 230 230 231 233 235 239 244 250 256 262 268
305 293 282 273 267 261 256 251 247 246 244 244 243 241 241 240 239 238 235 235 233 231 230 231 229 229 228 228 230 231 231 231 232 234 235 236 239 242 247 252 257 262 268
316 305 293 283 275 267 260 255 249 247 245 243 241 241 240 239 239 237 236 237 234 231 231 232 231 230 229 228 230 232 233 232 233 235 237 238 241 245 249 253 258 263 269
324 314 304 293 283 274 266 259 253 249 247 244 241 238 239 238 239 237 236 237 235 232 231 232 233 233 231 230 230 233 233 234 235 236 238 240 243 246 250 253 257 262 268
335 322 312 303 292 282 272 264 257 251 247 245 242 238 237 236 236 235 236 236 236 234 232 231 233 234 234 232 232 233 234 236 236 237 240 242 244 247 250 254 258 262 267
343 333 322 311 300 291 281 270 262 255 249 246 243 239 236 235 236 235 235 235 235 234 232 232 233 234 234 234 233 233 235 237 238 239 240 243 246 248 251 253 258 263 266
347 342 334 324 311 299 288 276 266 258 252 248 245 240 237 235 235 234 235 235 234 233 232 232 232 234 235 234 234 234 236 237 239 240 242 243 246 248 250 253 257 262 265
352 347 342 334 325 313 298 283 272 262 254 249 245 242 239 236 235 236 236 236 234 233 233 234 233 233 235 235 235 237 237 238 239 241 242 243 245 247 250 253 257 260 263
359 354 349 343 336 327 313 295 281 270 260 252 246 242 239 237 236 236 237 237 236 236 236 235 235 234 233 235 236 237 237 239 240 241 242 243 245 247 249 253 256 259 262
1 359 355 350 344 336 326 311 294 281 268 256 248 243 241 239 238 236 237 238 238 238 238 237 236 236 235 235 235 236 238 238 239 240 242 243 244 246 249 252 255 258 260
1 360 358 355 351 344 338 328 314 295 277 262 252 245 242 240 239 238 238 238 238 238 238 239 239 238 238 237 236 236 238 237 238 240 241 243 243 246 248 251 255 257 259
1 0 359 357 355 351 344 337 329 315 291 269 257 251 246 243 242 240 239 238 238 238 237 238 238 239 240 240 238 237 238 238 240 240 241 241 242 245 247 251 254 256 258
0 0 360 359 357 354 349 342 335 325 306 281 264 257 252 248 244 242 241 240 240 239 237 237 237 238 240 240 239 239 238 238 239 240 242 242 243 245 247 250 253 255 257
358 358 358 358 357 356 353 348 341 332 319 297 279 267 260 254 248 244 242 240 240 239 238 237 238 238 240 240 240 240 240 239 239 240 242 243 243 245 248 250 252 254 256
355 356 356 356 356 356 355 350 347 341 328 311 294 280 270 260 252 246 243 241 240 240 240 239 237 237 237 239 240 240 241 240 240 240 242 245 246 247 248 249 252 253 254
352 354 355 356 355 355 356 355 351 347 339 325 309 293 279 267 257 250 247 244 242 240 239 238 239 239 239 239 240 241 241 240 240 240 243 245 246 247 248 249 251 252 252
348 350 351 353 354 353 353 354 353 349 345 337 322 306 293 281 268 259 253 249 244 242 241 240 239 239 239 239 239 240 240 239 239 239 241 243 243 245 247 248 249 250 251
Height
5836 5838 5840 5843 5845 5847 5850 5853 5855 5858 5861 5863 5866 5868 5870 5872 5874 5876 5877 5879 5881 5882 5883 5885 5887 5889 5891 5892 5894 5896 5898 5899 5901 5903 5904 5906 5907 5909 5910 5911 5912 5912 5913
5828 5830 5833 5836 5838 5841 5843 5846 5849 5852 5854 5858 5861 5863 5866 5869 5871 5873 5874 5876 5878 5880 5882 5884 5886 5888 5889 5891 5893 5895 5897 5899 5901 5902 5904 5905 5907 5908 5909 5910 5911 5912 5913
5819 5822 5825 5828 5831 5834 5836 5839 5843 5846 5849 5852 5855 5858 5862 5864 5867 5870 5872 5873 5876 5878 5880 5882 5884 5886 5888 5890 5892 5894 5896 5898 5900 5901 5903 5905 5906 5907 5909 5910 5911 5911 5912
5811 5814 5817 5820 5823 5826 5830 5833 5836 5840 5843 5846 5850 5853 5856 5860 5863 5866 5868 5871 5873 5876 5878 5880 5882 5884 5886 5889 5891 5893 5895 5897 5898 5900 5902 5903 5905 5907 5908 5909 5910 5910 5911
5803 5806 5809 5811 5815 5818 5822 5826 5829 5833 5836 5840 5843 5847 5850 5854 5858 5861 5864 5867 5870 5873 5875 5878 5880 5882 5884 5887 5889 5891 5893 5895 5897 5899 5900 5902 5904 5905 5906 5908 5909 5909 5910
5796 5798 5801 5803 5807 5810 5814 5818 5822 5826 5830 5833 5837 5841 5844 5848 5852 5856 5859 5863 5866 5869 5872 5874 5877 5880 5882 5884 5887 5889 5891 5893 5895 5897 5898 5900 5902 5903 5905 5906 5907 5907 5908
5790 5792 5794 5796 5799 5802 5806 5810 5813 5818 5822 5826 5830 5834 5838 5842 5846 5850 5854 5857 5861 5864 5868 5871 5874 5876 5879 5881 5884 5886 5888 5891 5893 5894 5896 5898 5900 5901 5903 5904 5905 5905 5906
5784 5785 5787 5789 5791 5795 5798 5802 5805 5809 5814 5818 5822 5826 5831 5836 5840 5843 5848 5852 5855 5858 5862 5866 5868 5873 5875 5878 5880 5883 5885 5888 5890 5892 5893 5895 5897 5899 5900 5901 5902 5903 5903
5780 5780 5781 5783 5785 5787 5790 5794 5797 5801 5806 5810 5814 5819 5823 5828 5832 5837 5841 5845 5849 5852 5856 5860 5864 5868 5871 5874 5877 5879 5882 5884 5886 5889 5891 5892 5894 5896 5898 5899 5900 5900 5901
5776 5776 5776 5777 5778 5780 5783 5786 5789 5793 5797 5802 5806 5811 5816 5820 5825 5830 5834 5838 5842 5846 5850 5853 5858 5861 5865 5869 5872 5875 5878 5880 5883 5885 5887 5889 5891 5893 5894 5895 5896 5897 5897
5772 5772 5771 5772 5773 5774 5776 5778 5781 5785 5789 5793 5797 5802 5807 5812 5816 5821 5826 5831 5835 5839 5843 5847 5851 5855 5860 5864 5867 5870 5873 5876 5878 5881 5883 5885 5887 5889 5890 5891 5893 5893 5894
5770 5768 5767 5767 5767 5768 5769 5771 5773 5776 5780 5784 5789 5793 5798 5803 5808 5813 5818 5822 5827 5831 5835 5839 5844 5848 5852 5857 5861 5864 5867 5870 5873 5876 5878 5881 5883 5884 5886 5887 5888 5889 5890
5767 5765 5764 5763 5762 5762 5763 5764 5766 5768 5772 5775 5780 5784 5789 5794 5798 5803 5809 5814 5818 5823 5827 5832 5837 5841 5845 5850 5855 5858 5860 5864 5867 5870 5873 5875 5877 5879 5881 5882 5883 5884 5885
5765 5763 5761 5759 5758 5757 5757 5758 5759 5761 5763 5767 5770 5775 5779 5785 5789 5794 5799 5805 5810 5815 5820 5824 5829 5833 5838 5842 5847 5851 5854 5857 5860 5864 5867 5869 5872 5874 5876 5877 5878 5879 5880
5763 5760 5757 5755 5753 5752 5751 5751 5752 5753 5755 5758 5762 5766 5770 5775 5780 5785 5790 5795 5801 5806 5812 5816 5821 5825 5829 5833 5839 5843 5846 5850 5853 5857 5860 5863 5865 5868 5870 5871 5873 5874 5874
5761 5757 5754 5751 5749 5747 5745 5744 5745 5746 5748 5750 5753 5757 5762 5767 5772 5777 5781 5786 5792 5797 5802 5807 5812 5817 5821 5825 5830 5834 5838 5842 5846 5849 5853 5856 5859 5861 5863 5865 5867 5868 5869
5759 5755 5751 5748 5744 5742 5740 5739 5739 5739 5741 5743 5746 5749 5753 5758 5763 5767 5772 5777 5782 5788 5793 5798 5803 5808 5813 5817 5821 5826 5830 5834 5838 5841 5845 5848 5851 5854 5856 5858 5860 5861 5862
5757 5753 5748 5744 5741 5738 5735 5734 5733 5733 5734 5736 5738 5741 5745 5749 5754 5758 5763 5768 5773 5779 5784 5789 5794 5798 5804 5808 5813 5817 5821 5825 5829 5833 5836 5840 5843 5846 5848 5851 5852 5854 5855
5757 5751 5746 5742 5738 5735 5732 5730 5729 5728 5728 5730 5732 5734 5737 5741 5745 5750 5754 5759 5764 5769 5774 5779 5784 5789 5794 5799 5803 5808 5812 5816 5820 5824 5827 5831 5834 5838 5840 5843 5845 5847 5848
5756 5750 5745 5741 5736 5733 5730 5727 5725 5723 5723 5724 5726 5728 5731 5734 5738 5741 5746 5750 5755 5760 5764 5770 5774 5780 5785 5789 5794 5799 5803 5807 5811 5815 5818 5822 5826 5829 5832 5835 5837 5839 5840
5755 5750 5745 5740 5735 5731 5728 5725 5722 5720 5719 5719 5720 5722 5725 5728 5730 5733 5737 5741 5745 5750 5755 5760 5765 5770 5775 5779 5785 5789 5793 5798 5801 5806 5810 5813 5817 5821 5823 5826 5829 5830 5832
5755 5750 5745 5739 5735 5730 5726 5723 5720 5717 5716 5716 5716 5718 5719 5721 5723 5726 5729 5733 5737 5741 5746 5750 5755 5760 5765 5770 5774 5779 5784 5788 5793 5797 5801 5804 5808 5811 5815 5817 5820 5822 5824
5755 5750 5744 5739 5734 5729 5725 5721 5718 5715 5714 5713 5713 5713 5714 5715 5717 5719 5722 5725 5729 5732 5736 5741 5746 5751 5756 5761 5765 5769 5773 5778 5783 5787 5791 5795 5798 5802 5805 5808 5811 5813 5815
5755 5750 5744 5739 5734 5729 5724 5720 5716 5713 5712 5710 5709 5709 5709 5710 5711 5713 5715 5718 5721 5724 5728 5732 5737 5741 5745 5750 5754 5759 5763 5767 5772 5777 5781 5785 5788 5792 5795 5798 5801 5804 5805
5755 5749 5744 5738 5733 5728 5723 5719 5715 5712 5710 5707 5706 5705 5705 5705 5706 5708 5710 5712 5714 5717 5720 5724 5728 5732 5736 5740 5744 5748 5753 5757 5761 5766 5771 5775 5778 5782 5785 5788 5791 5794 5796
5754 5749 5743 5738 5733 5728 5723 5719 5715 5711 5708 5706 5704 5703 5702 5702 5702 5703 5704 5706 5708 5710 5713 5716 5720 5723 5727 5731 5735 5739 5743 5747 5751 5756 5761 5765 5768 5772 5775 5778 5781 5784 5787